Time,TemperatureF,DewpointF,PressureIn,WindDirection,WindDirectionDegrees,WindSpeedMPH,WindSpeedGustMPH,Humidity,HourlyPrecipIn,Conditions,Clouds,dailyrainin,SoftwareType,DateUTC
2013-05-08 00:00:00,72.0,54.4,29.98,WNW,292,0.0,4.0,54,0.00,,---,0.00,VWS V13.01,2013-05-08 04:00:00,
2013-05-08 00:01:00,71.8,54.3,29.98,WNW,292,0.0,0.0,54,0.00,,---,0.00,VWS V13.01,2013-05-08 04:01:00,
2013-05-08 00:06:00,71.8,54.3,29.98,WNW,292,0.0,0.0,54,0.00,,---,0.00,VWS V13.01,2013-05-08 04:06:00,
2013-05-08 00:11:00,71.8,54.8,29.98,WSW,248,0.0,0.0,55,0.00,,---,0.00,VWS V13.01,2013-05-08 04:11:00,
2013-05-08 00:16:00,71.6,54.6,29.98,West,270,0.0,0.0,55,0.00,,---,0.00,VWS V13.01,2013-05-08 04:16:00,
2013-05-08 00:21:00,71.4,54.4,29.98,SW,225,0.0,2.2,55,0.00,,---,0.00,VWS V13.01,2013-05-08 04:21:00,
2013-05-08 00:26:00,71.2,54.3,29.98,SW,225,0.0,2.2,55,0.00,,---,0.00,VWS V13.01,2013-05-08 04:26:00,
2013-05-08 00:31:00,71.1,54.6,29.98,West,270,0.0,2.2,56,0.00,,---,0.00,VWS V13.01,2013-05-08 04:31:00,
2013-05-08 00:36:00,70.9,54.4,29.98,WNW,292,0.0,2.2,56,0.00,,---,0.00,VWS V13.01,2013-05-08 04:36:00,
2013-05-08 00:41:00,70.7,54.2,29.98,WSW,248,0.0,2.9,56,0.00,,---,0.00,VWS V13.01,2013-05-08 04:41:00,
2013-05-08 00:46:00,70.7,54.2,29.98,NW,315,0.0,3.1,56,0.00,,---,0.00,VWS V13.01,2013-05-08 04:46:00,
2013-05-08 00:51:00,70.7,54.7,29.98,West,270,0.0,3.1,57,0.00,,---,0.00,VWS V13.01,2013-05-08 04:51:00,
2013-05-08 00:56:00,70.5,55.0,29.98,SW,225,0.0,3.1,58,0.00,,---,0.00,VWS V13.01,2013-05-08 04:56:00,
2013-05-08 01:01:00,70.5,55.0,29.98,SW,225,0.0,3.1,58,0.00,,---,0.00,VWS V13.01,2013-05-08 05:01:00,
2013-05-08 01:06:00,70.5,55.0,29.98,SW,225,0.0,3.1,58,0.00,,---,0.00,VWS V13.01,2013-05-08 05:06:00,
2013-05-08 01:11:00,70.3,54.9,29.98,WSW,248,0.0,0.0,58,0.00,,---,0.00,VWS V13.01,2013-05-08 05:11:00,
2013-05-08 01:16:00,70.0,55.0,29.97,WSW,248,0.0,0.0,59,0.00,,---,0.00,VWS V13.01,2013-05-08 05:16:00,
2013-05-08 01:21:00,70.0,55.0,29.97,WSW,248,0.0,0.0,59,0.00,,---,0.00,VWS V13.01,2013-05-08 05:21:00,
2013-05-08 01:26:00,69.8,54.8,29.97,West,270,0.0,0.0,59,0.00,,---,0.00,VWS V13.01,2013-05-08 05:26:00,
2013-05-08 01:31:00,69.8,55.3,29.97,West,270,0.0,0.0,60,0.00,,---,0.00,VWS V13.01,2013-05-08 05:31:00,
2013-05-08 01:36:00,69.6,55.1,29.97,West,270,0.0,0.0,60,0.00,,---,0.00,VWS V13.01,2013-05-08 05:36:00,
2013-05-08 01:41:00,69.4,55.0,29.97,West,270,0.0,0.0,60,0.00,,---,0.00,VWS V13.01,2013-05-08 05:41:00,
2013-05-08 01:46:00,69.3,55.2,29.97,West,270,0.0,0.0,61,0.00,,---,0.00,VWS V13.01,2013-05-08 05:46:00,
2013-05-08 01:51:00,69.3,55.2,29.97,West,270,0.0,0.0,61,0.00,,---,0.00,VWS V13.01,2013-05-08 05:51:00,
2013-05-08 01:56:00,69.3,55.2,29.97,West,270,0.0,0.0,61,0.00,,---,0.00,VWS V13.01,2013-05-08 05:56:00,
2013-05-08 02:01:00,69.1,55.5,29.96,West,270,0.0,0.0,62,0.00,,---,0.00,VWS V13.01,2013-05-08 06:01:00,
2013-05-08 02:06:00,68.9,55.4,29.96,West,270,0.0,0.0,62,0.00,,---,0.00,VWS V13.01,2013-05-08 06:06:00,
2013-05-08 02:11:00,68.9,55.4,29.96,West,270,0.0,0.0,62,0.00,,---,0.00,VWS V13.01,2013-05-08 06:11:00,
2013-05-08 02:16:00,68.7,56.1,29.96,West,270,0.0,0.0,64,0.00,,---,0.00,VWS V13.01,2013-05-08 06:16:00,
2013-05-08 02:21:00,68.5,55.9,29.96,West,270,0.0,0.0,64,0.00,,---,0.00,VWS V13.01,2013-05-08 06:21:00,
2013-05-08 02:26:00,68.4,56.2,29.96,West,270,0.0,0.0,65,0.00,,---,0.00,VWS V13.01,2013-05-08 06:26:00,
2013-05-08 02:31:00,68.4,56.2,29.96,West,270,0.0,0.0,65,0.00,,---,0.00,VWS V13.01,2013-05-08 06:31:00,
2013-05-08 02:36:00,68.4,56.6,29.96,West,270,0.0,0.0,66,0.00,,---,0.00,VWS V13.01,2013-05-08 06:36:00,
2013-05-08 02:41:00,68.2,56.4,29.96,West,270,0.0,0.0,66,0.00,,---,0.00,VWS V13.01,2013-05-08 06:41:00,
2013-05-08 02:46:00,68.2,56.4,29.96,West,270,0.0,0.0,66,0.00,,---,0.00,VWS V13.01,2013-05-08 06:46:00,
2013-05-08 02:51:00,68.2,56.4,29.96,West,270,0.0,0.0,66,0.00,,---,0.00,VWS V13.01,2013-05-08 06:51:00,
2013-05-08 02:56:00,68.2,56.4,29.96,West,270,0.0,0.0,66,0.00,,---,0.00,VWS V13.01,2013-05-08 06:56:00,
2013-05-08 03:01:00,67.8,56.5,29.96,West,270,0.0,0.0,67,0.00,,---,0.00,VWS V13.01,2013-05-08 07:01:00,
2013-05-08 03:06:00,67.6,56.3,29.96,West,270,0.0,0.0,67,0.00,,---,0.00,VWS V13.01,2013-05-08 07:06:00,
2013-05-08 03:11:00,67.6,56.3,29.96,West,270,0.0,0.0,67,0.00,,---,0.00,VWS V13.01,2013-05-08 07:11:00,
2013-05-08 03:16:00,67.6,56.3,29.96,West,270,0.0,0.0,67,0.00,,---,0.00,VWS V13.01,2013-05-08 07:16:00,
2013-05-08 03:21:00,67.5,56.1,29.96,West,270,0.0,0.0,67,0.00,,---,0.00,VWS V13.01,2013-05-08 07:21:00,
2013-05-08 03:26:00,67.5,56.1,29.96,West,270,0.0,0.0,67,0.00,,---,0.00,VWS V13.01,2013-05-08 07:26:00,
2013-05-08 03:31:00,67.5,56.5,29.96,West,270,0.0,0.0,68,0.00,,---,0.00,VWS V13.01,2013-05-08 07:31:00,
2013-05-08 03:36:00,67.5,56.5,29.96,West,270,0.0,0.0,68,0.00,,---,0.00,VWS V13.01,2013-05-08 07:36:00,
2013-05-08 03:41:00,67.3,56.4,29.96,West,270,0.0,0.0,68,0.00,,---,0.00,VWS V13.01,2013-05-08 07:41:00,
2013-05-08 03:46:00,67.1,56.2,29.97,West,270,0.0,0.0,68,0.00,,---,0.00,VWS V13.01,2013-05-08 07:46:00,
2013-05-08 03:51:00,67.1,56.2,29.97,West,270,0.0,0.0,68,0.00,,---,0.00,VWS V13.01,2013-05-08 07:51:00,
2013-05-08 03:56:00,66.9,56.4,29.97,West,270,0.0,0.0,69,0.00,,---,0.00,VWS V13.01,2013-05-08 07:56:00,
2013-05-08 04:01:00,66.7,56.3,29.97,West,270,0.0,0.0,69,0.00,,---,0.00,VWS V13.01,2013-05-08 08:01:00,
2013-05-08 04:06:00,66.7,56.3,29.97,West,270,0.0,0.0,69,0.00,,---,0.00,VWS V13.01,2013-05-08 08:06:00,
2013-05-08 04:11:00,66.6,56.5,29.97,West,270,0.0,0.0,70,0.00,,---,0.00,VWS V13.01,2013-05-08 08:11:00,
2013-05-08 04:16:00,66.4,56.3,29.96,West,270,0.0,0.0,70,0.00,,---,0.00,VWS V13.01,2013-05-08 08:16:00,
2013-05-08 04:21:00,66.4,56.3,29.97,West,270,0.0,0.0,70,0.00,,---,0.00,VWS V13.01,2013-05-08 08:21:00,
2013-05-08 04:26:00,66.2,56.1,29.97,West,270,0.0,0.0,70,0.00,,---,0.00,VWS V13.01,2013-05-08 08:26:00,
2013-05-08 04:31:00,66.2,56.1,29.97,West,270,0.0,0.0,70,0.00,,---,0.00,VWS V13.01,2013-05-08 08:31:00,
2013-05-08 04:36:00,65.8,56.2,29.97,West,270,0.0,0.0,71,0.00,,---,0.00,VWS V13.01,2013-05-08 08:36:00,
2013-05-08 04:41:00,65.8,56.2,29.96,West,270,0.0,0.0,71,0.00,,---,0.00,VWS V13.01,2013-05-08 08:41:00,
2013-05-08 04:46:00,65.8,56.2,29.97,West,270,0.0,0.0,71,0.00,,---,0.00,VWS V13.01,2013-05-08 08:46:00,
2013-05-08 04:51:00,65.8,56.2,29.97,West,270,0.0,0.0,71,0.00,,---,0.00,VWS V13.01,2013-05-08 08:51:00,
2013-05-08 04:56:00,65.8,56.6,29.97,West,270,0.0,0.0,72,0.00,,---,0.00,VWS V13.01,2013-05-08 08:56:00,
2013-05-08 05:01:00,65.8,56.6,29.97,West,270,0.0,0.0,72,0.00,,---,0.00,VWS V13.01,2013-05-08 09:01:00,
2013-05-08 05:06:00,65.7,56.4,29.97,West,270,0.0,0.0,72,0.00,,---,0.00,VWS V13.01,2013-05-08 09:06:00,
2013-05-08 05:11:00,65.7,56.4,29.97,West,270,0.0,0.0,72,0.00,,---,0.00,VWS V13.01,2013-05-08 09:11:00,
2013-05-08 05:16:00,65.5,56.2,29.98,West,270,0.0,0.0,72,0.00,,---,0.00,VWS V13.01,2013-05-08 09:16:00,
2013-05-08 05:21:00,65.7,56.8,29.98,West,270,0.0,0.0,73,0.00,,---,0.00,VWS V13.01,2013-05-08 09:21:00,
2013-05-08 05:26:00,65.7,56.8,29.98,West,270,0.0,0.0,73,0.00,,---,0.00,VWS V13.01,2013-05-08 09:26:00,
2013-05-08 05:31:00,65.7,56.8,29.99,West,270,0.0,0.0,73,0.00,,---,0.00,VWS V13.01,2013-05-08 09:31:00,
2013-05-08 05:36:00,65.7,56.8,29.98,West,270,0.0,0.0,73,0.00,,---,0.00,VWS V13.01,2013-05-08 09:36:00,
2013-05-08 05:41:00,65.3,56.4,29.98,West,270,0.0,0.0,73,0.00,,---,0.00,VWS V13.01,2013-05-08 09:41:00,
2013-05-08 05:46:00,65.3,56.4,29.99,West,270,0.0,0.0,73,0.00,,---,0.00,VWS V13.01,2013-05-08 09:46:00,
2013-05-08 05:51:00,65.1,56.6,29.99,West,270,0.0,0.0,74,0.00,,---,0.00,VWS V13.01,2013-05-08 09:51:00,
2013-05-08 05:56:00,65.1,56.6,29.99,West,270,0.0,0.0,74,0.00,,---,0.00,VWS V13.01,2013-05-08 09:56:00,
2013-05-08 06:01:00,64.9,56.5,29.99,West,270,0.0,0.0,74,0.00,,---,0.00,VWS V13.01,2013-05-08 10:01:00,
2013-05-08 06:06:00,64.9,56.5,29.99,West,270,0.0,0.0,74,0.00,,---,0.00,VWS V13.01,2013-05-08 10:06:00,
2013-05-08 06:11:00,64.8,56.3,29.99,West,270,0.0,0.0,74,0.00,,---,0.00,VWS V13.01,2013-05-08 10:11:00,
2013-05-08 06:16:00,64.6,56.5,29.99,West,270,0.0,0.0,75,0.00,,---,0.00,VWS V13.01,2013-05-08 10:16:00,
2013-05-08 06:21:00,64.6,56.5,29.99,West,270,0.0,0.0,75,0.00,,---,0.00,VWS V13.01,2013-05-08 10:21:00,
2013-05-08 06:26:00,64.6,56.5,29.99,West,270,0.0,0.0,75,0.00,,---,0.00,VWS V13.01,2013-05-08 10:26:00,
2013-05-08 06:31:00,64.6,56.5,29.99,West,270,0.0,0.0,75,0.00,,---,0.00,VWS V13.01,2013-05-08 10:31:00,
2013-05-08 06:36:00,64.4,56.3,29.99,West,270,0.0,0.0,75,0.00,,---,0.00,VWS V13.01,2013-05-08 10:36:00,
2013-05-08 06:41:00,64.2,56.1,30.00,West,270,0.0,0.0,75,0.00,,---,0.00,VWS V13.01,2013-05-08 10:41:00,
2013-05-08 06:46:00,64.2,56.1,30.00,West,270,0.0,0.0,75,0.00,,---,0.00,VWS V13.01,2013-05-08 10:46:00,
2013-05-08 06:51:00,64.4,56.7,30.00,West,270,0.0,0.0,76,0.00,,---,0.00,VWS V13.01,2013-05-08 10:51:00,
2013-05-08 06:56:00,64.6,56.8,30.00,West,270,0.0,0.0,76,0.00,,---,0.00,VWS V13.01,2013-05-08 10:56:00,
2013-05-08 07:01:00,65.7,58.3,30.00,West,270,0.0,0.0,77,0.00,,---,0.00,VWS V13.01,2013-05-08 11:01:00,
2013-05-08 07:06:00,67.3,60.2,30.00,West,270,0.0,0.0,78,0.00,,---,0.00,VWS V13.01,2013-05-08 11:06:00,
2013-05-08 07:11:00,68.9,61.8,30.00,West,270,0.0,0.0,78,0.00,,---,0.00,VWS V13.01,2013-05-08 11:11:00,
2013-05-08 07:16:00,70.9,62.2,30.01,West,270,0.0,0.0,74,0.00,,---,0.00,VWS V13.01,2013-05-08 11:16:00,
2013-05-08 07:21:00,72.9,62.5,30.01,NW,315,0.0,0.0,70,0.00,,---,0.00,VWS V13.01,2013-05-08 11:21:00,
2013-05-08 07:26:00,74.3,62.2,30.01,WNW,292,0.0,0.0,66,0.00,,---,0.00,VWS V13.01,2013-05-08 11:26:00,
2013-05-08 07:31:00,76.5,62.0,30.01,WNW,292,0.0,0.0,61,0.00,,---,0.00,VWS V13.01,2013-05-08 11:31:00,
2013-05-08 07:36:00,78.1,61.1,30.01,WNW,292,0.0,0.0,56,0.00,,---,0.00,VWS V13.01,2013-05-08 11:36:00,
2013-05-08 07:41:00,79.9,61.2,30.02,WNW,292,0.0,0.0,53,0.00,,---,0.00,VWS V13.01,2013-05-08 11:41:00,
2013-05-08 07:46:00,81.7,61.2,30.02,WNW,292,0.0,0.0,50,0.00,,---,0.00,VWS V13.01,2013-05-08 11:46:00,
2013-05-08 07:51:00,82.8,60.5,30.02,WNW,292,0.0,0.0,47,0.00,,---,0.00,VWS V13.01,2013-05-08 11:51:00,
2013-05-08 07:56:00,83.5,59.3,30.02,WNW,292,0.0,0.0,44,0.00,,---,0.00,VWS V13.01,2013-05-08 11:56:00,
2013-05-08 08:01:00,84.2,59.3,30.02,SSW,202,0.0,0.0,43,0.00,,---,0.00,VWS V13.01,2013-05-08 12:01:00,
2013-05-08 08:06:00,84.9,59.3,30.02,NW,315,0.0,0.0,42,0.00,,---,0.00,VWS V13.01,2013-05-08 12:06:00,
2013-05-08 08:11:00,85.1,57.4,30.02,WNW,292,0.0,2.7,39,0.00,,---,0.00,VWS V13.01,2013-05-08 12:11:00,
2013-05-08 08:16:00,86.2,59.0,30.03,West,270,0.0,2.7,40,0.00,,---,0.00,VWS V13.01,2013-05-08 12:16:00,
2013-05-08 08:21:00,86.2,56.9,30.03,WNW,292,2.2,2.7,37,0.00,,---,0.00,VWS V13.01,2013-05-08 12:21:00,
2013-05-08 08:26:00,84.9,56.5,30.03,West,270,0.0,2.7,38,0.00,,---,0.00,VWS V13.01,2013-05-08 12:26:00,
2013-05-08 08:31:00,83.3,54.3,30.03,WSW,248,0.0,2.7,37,0.00,,---,0.00,VWS V13.01,2013-05-08 12:31:00,
2013-05-08 08:36:00,81.1,53.9,30.03,SW,225,0.0,2.7,39,0.00,,---,0.00,VWS V13.01,2013-05-08 12:36:00,
2013-05-08 08:41:00,79.5,53.8,30.03,WSW,248,0.0,2.7,41,0.00,,---,0.00,VWS V13.01,2013-05-08 12:41:00,
2013-05-08 08:46:00,78.4,54.1,30.03,West,270,0.0,2.9,43,0.00,,---,0.00,VWS V13.01,2013-05-08 12:46:00,
2013-05-08 08:51:00,77.4,54.4,30.04,SW,225,0.0,2.9,45,0.00,,---,0.00,VWS V13.01,2013-05-08 12:51:00,
2013-05-08 08:56:00,76.8,54.5,30.04,WNW,292,0.0,2.9,46,0.00,,---,0.00,VWS V13.01,2013-05-08 12:56:00,
2013-05-08 09:01:00,76.5,54.2,30.04,WNW,292,0.0,0.0,46,0.00,,---,0.00,VWS V13.01,2013-05-08 13:01:00,
2013-05-08 09:06:00,76.1,55.0,30.04,SW,225,0.0,1.3,48,0.00,,---,0.00,VWS V13.01,2013-05-08 13:06:00,
2013-05-08 09:11:00,76.1,55.6,30.04,SW,225,0.0,1.3,49,0.00,,---,0.00,VWS V13.01,2013-05-08 13:11:00,
2013-05-08 09:16:00,76.6,55.5,30.04,WNW,292,0.0,2.0,48,0.00,,---,0.00,VWS V13.01,2013-05-08 13:16:00,
2013-05-08 09:21:00,76.1,54.4,30.04,WSW,248,0.0,2.0,47,0.00,,---,0.00,VWS V13.01,2013-05-08 13:21:00,
2013-05-08 09:26:00,76.5,55.3,30.04,West,270,0.0,2.0,48,0.00,,---,0.00,VWS V13.01,2013-05-08 13:26:00,
2013-05-08 09:30:00,76.6,55.5,30.04,West,270,0.0,2.0,48,0.00,,---,0.00,VWS V13.01,2013-05-08 13:30:00,
2013-05-08 09:36:00,76.5,54.8,30.04,NNW,338,0.0,3.1,47,0.00,,---,0.00,VWS V13.01,2013-05-08 13:36:00,
2013-05-08 09:40:00,76.1,53.8,30.04,WSW,248,0.0,3.1,46,0.00,,---,0.00,VWS V13.01,2013-05-08 13:40:00,
2013-05-08 09:45:00,76.5,54.2,30.04,WNW,292,0.0,3.1,46,0.00,,---,0.00,VWS V13.01,2013-05-08 13:45:00,
2013-05-08 09:50:00,76.6,54.3,30.04,NW,315,0.0,3.1,46,0.00,,---,0.00,VWS V13.01,2013-05-08 13:50:00,
2013-05-08 09:55:00,77.4,55.0,30.05,NNW,338,3.8,3.8,46,0.00,,---,0.00,VWS V13.01,2013-05-08 13:55:00,
2013-05-08 10:00:00,77.9,55.5,30.05,SW,225,0.0,0.0,46,0.00,,---,0.00,VWS V13.01,2013-05-08 14:00:00,
2013-05-08 10:05:00,78.3,55.2,30.05,SW,225,0.0,2.9,45,0.00,,---,0.00,VWS V13.01,2013-05-08 14:05:00,
2013-05-08 10:10:00,78.4,54.7,30.04,NW,315,0.0,2.9,44,0.00,,---,0.00,VWS V13.01,2013-05-08 14:10:00,
2013-05-08 10:15:00,78.8,54.4,30.05,WNW,292,0.0,6.0,43,0.00,,---,0.00,VWS V13.01,2013-05-08 14:15:00,
2013-05-08 10:20:00,79.2,54.8,30.05,WNW,292,0.0,6.0,43,0.00,,---,0.00,VWS V13.01,2013-05-08 14:20:00,
2013-05-08 10:25:00,79.0,54.0,30.05,SSW,202,0.0,6.0,42,0.00,,---,0.00,VWS V13.01,2013-05-08 14:25:00,
2013-05-08 10:30:00,79.2,54.1,30.04,NNW,338,0.0,6.0,42,0.00,,---,0.00,VWS V13.01,2013-05-08 14:30:00,
2013-05-08 10:35:00,79.2,54.8,30.05,SW,225,2.9,6.0,43,0.00,,---,0.00,VWS V13.01,2013-05-08 14:35:00,
2013-05-08 10:40:00,79.9,54.1,30.05,NW,315,0.0,6.0,41,0.00,,---,0.00,VWS V13.01,2013-05-08 14:40:00,
2013-05-08 10:45:00,80.2,53.8,30.05,WSW,248,0.0,6.0,40,0.00,,---,0.00,VWS V13.01,2013-05-08 14:45:00,
2013-05-08 10:50:00,81.0,53.7,30.04,West,270,0.0,6.0,39,0.00,,---,0.00,VWS V13.01,2013-05-08 14:50:00,
2013-05-08 10:55:00,81.1,53.2,30.05,WNW,292,0.0,6.0,38,0.00,,---,0.00,VWS V13.01,2013-05-08 14:55:00,
2013-05-08 11:00:00,81.0,53.0,30.04,WNW,292,0.0,0.0,38,0.00,,---,0.00,VWS V13.01,2013-05-08 15:00:00,
2013-05-08 11:05:00,81.3,53.3,30.04,West,270,0.0,2.5,38,0.00,,---,0.00,VWS V13.01,2013-05-08 15:05:00,
2013-05-08 11:10:00,81.9,53.8,30.05,SW,225,0.0,4.9,38,0.00,,---,0.00,VWS V13.01,2013-05-08 15:10:00,
2013-05-08 11:15:00,82.4,54.3,30.04,WSW,248,0.0,4.9,38,0.00,,---,0.00,VWS V13.01,2013-05-08 15:15:00,
2013-05-08 11:20:00,82.4,52.8,30.04,NW,315,0.0,4.9,36,0.00,,---,0.00,VWS V13.01,2013-05-08 15:20:00,
2013-05-08 11:25:00,82.0,51.7,30.04,West,270,1.3,4.9,35,0.00,,---,0.00,VWS V13.01,2013-05-08 15:25:00,
2013-05-08 11:30:00,81.9,51.5,30.05,South,180,0.0,4.9,35,0.00,,---,0.00,VWS V13.01,2013-05-08 15:30:00,
2013-05-08 11:35:00,82.6,53.0,30.04,SSW,202,0.0,4.9,36,0.00,,---,0.00,VWS V13.01,2013-05-08 15:35:00,
2013-05-08 11:40:00,83.1,53.4,30.04,WNW,292,1.1,4.9,36,0.00,,---,0.00,VWS V13.01,2013-05-08 15:40:00,
2013-05-08 11:45:00,82.9,51.7,30.04,NNW,338,0.0,4.9,34,0.00,,---,0.00,VWS V13.01,2013-05-08 15:45:00,
2013-05-08 11:50:00,83.3,52.8,30.04,SSE,158,0.0,4.9,35,0.00,,---,0.00,VWS V13.01,2013-05-08 15:50:00,
2013-05-08 11:55:00,83.8,52.5,30.04,SSE,158,0.0,4.9,34,0.00,,---,0.00,VWS V13.01,2013-05-08 15:55:00,
2013-05-08 12:00:00,84.4,53.8,30.04,West,270,0.0,3.8,35,0.00,,---,0.00,VWS V13.01,2013-05-08 16:00:00,
2013-05-08 12:05:00,84.7,53.3,30.03,South,180,0.0,3.8,34,0.00,,---,0.00,VWS V13.01,2013-05-08 16:05:00,
2013-05-08 12:10:00,84.9,53.5,30.03,WNW,292,0.0,3.8,34,0.00,,---,0.00,VWS V13.01,2013-05-08 16:10:00,
2013-05-08 12:15:00,84.7,53.3,30.03,SW,225,0.0,3.8,34,0.00,,---,0.00,VWS V13.01,2013-05-08 16:15:00,
2013-05-08 12:20:00,85.1,52.8,30.03,SE,135,0.0,3.8,33,0.00,,---,0.00,VWS V13.01,2013-05-08 16:20:00,
2013-05-08 12:25:00,85.1,52.0,30.03,West,270,2.2,6.3,32,0.00,,---,0.00,VWS V13.01,2013-05-08 16:25:00,
2013-05-08 12:30:00,85.1,52.0,30.03,West,270,0.0,6.3,32,0.00,,---,0.00,VWS V13.01,2013-05-08 16:30:00,
2013-05-08 12:35:00,85.5,52.3,30.03,SW,225,0.9,6.3,32,0.00,,---,0.00,VWS V13.01,2013-05-08 16:35:00,
2013-05-08 12:40:00,86.2,52.9,30.03,SSW,202,2.5,6.3,32,0.00,,---,0.00,VWS V13.01,2013-05-08 16:40:00,
2013-05-08 12:45:00,86.7,53.4,30.02,WSW,248,4.0,6.3,32,0.00,,---,0.00,VWS V13.01,2013-05-08 16:45:00,
2013-05-08 12:50:00,86.9,51.8,30.02,WNW,292,2.7,6.3,30,0.00,,---,0.00,VWS V13.01,2013-05-08 16:50:00,
2013-05-08 12:55:00,86.7,51.6,30.02,SW,225,1.6,6.3,30,0.00,,---,0.00,VWS V13.01,2013-05-08 16:55:00,
2013-05-08 13:00:00,86.9,50.8,30.02,NNW,338,0.0,2.7,29,0.00,,---,0.00,VWS V13.01,2013-05-08 17:00:00,
2013-05-08 13:05:00,86.9,50.8,30.02,WSW,248,2.7,3.1,29,0.00,,---,0.00,VWS V13.01,2013-05-08 17:05:00,
2013-05-08 13:10:00,86.7,48.8,30.02,WNW,292,2.0,6.0,27,0.00,,---,0.00,VWS V13.01,2013-05-08 17:10:00,
2013-05-08 13:15:00,86.4,48.5,30.02,WNW,292,5.4,6.3,27,0.00,,---,0.00,VWS V13.01,2013-05-08 17:15:00,
2013-05-08 13:20:00,86.5,48.6,30.02,SSW,202,0.0,6.3,27,0.00,,---,0.00,VWS V13.01,2013-05-08 17:20:00,
2013-05-08 13:25:00,86.9,48.9,30.02,SW,225,2.5,6.3,27,0.00,,---,0.00,VWS V13.01,2013-05-08 17:25:00,
2013-05-08 13:30:00,87.1,49.1,30.01,WSW,248,3.4,6.3,27,0.00,,---,0.00,VWS V13.01,2013-05-08 17:30:00,
2013-05-08 13:35:00,87.3,48.2,30.01,West,270,7.4,7.4,26,0.00,,---,0.00,VWS V13.01,2013-05-08 17:35:00,
2013-05-08 13:40:00,87.1,47.0,30.01,NW,315,0.0,7.4,25,0.00,,---,0.00,VWS V13.01,2013-05-08 17:40:00,
2013-05-08 13:45:00,87.4,48.4,30.01,West,270,1.6,7.4,26,0.00,,---,0.00,VWS V13.01,2013-05-08 17:45:00,
2013-05-08 13:50:00,87.6,48.5,30.01,WSW,248,3.8,7.4,26,0.00,,---,0.00,VWS V13.01,2013-05-08 17:50:00,
2013-05-08 13:55:00,88.0,49.8,30.01,SSW,202,0.0,7.4,27,0.00,,---,0.00,VWS V13.01,2013-05-08 17:55:00,
2013-05-08 14:00:00,88.3,50.2,30.01,NNW,338,5.1,5.1,27,0.00,,---,0.00,VWS V13.01,2013-05-08 18:00:00,
2013-05-08 14:05:00,88.5,49.3,30.01,WSW,248,3.6,7.4,26,0.00,,---,0.00,VWS V13.01,2013-05-08 18:05:00,
2013-05-08 14:10:00,88.7,49.5,30.01,WNW,292,0.0,7.4,26,0.00,,---,0.00,VWS V13.01,2013-05-08 18:10:00,
2013-05-08 14:15:00,89.1,50.8,30.01,South,180,5.8,7.4,27,0.00,,---,0.00,VWS V13.01,2013-05-08 18:15:00,
2013-05-08 14:20:00,89.1,49.8,30.00,WNW,292,0.0,9.0,26,0.00,,---,0.00,VWS V13.01,2013-05-08 18:20:00,
2013-05-08 14:25:00,89.2,50.9,30.00,SSW,202,0.0,9.0,27,0.00,,---,0.00,VWS V13.01,2013-05-08 18:25:00,
2013-05-08 14:30:00,89.8,51.4,30.00,SW,225,6.0,9.0,27,0.00,,---,0.00,VWS V13.01,2013-05-08 18:30:00,
2013-05-08 14:35:00,89.8,49.3,30.00,WNW,292,1.1,9.0,25,0.00,,---,0.00,VWS V13.01,2013-05-08 18:35:00,
2013-05-08 14:40:00,89.8,50.4,30.00,West,270,0.0,9.0,26,0.00,,---,0.00,VWS V13.01,2013-05-08 18:40:00,
2013-05-08 14:45:00,89.8,49.3,29.99,WSW,248,0.0,9.0,25,0.00,,---,0.00,VWS V13.01,2013-05-08 18:45:00,
2013-05-08 14:50:00,90.3,50.8,29.99,West,270,1.1,9.0,26,0.00,,---,0.00,VWS V13.01,2013-05-08 18:50:00,
2013-05-08 14:55:00,90.1,50.7,29.99,WNW,292,0.0,9.0,26,0.00,,---,0.00,VWS V13.01,2013-05-08 18:55:00,
2013-05-08 15:00:00,90.1,49.6,29.99,SW,225,3.1,3.1,25,0.00,,---,0.00,VWS V13.01,2013-05-08 19:00:00,
2013-05-08 15:05:00,90.3,49.8,29.99,SW,225,0.0,9.8,25,0.00,,---,0.00,VWS V13.01,2013-05-08 19:05:00,
2013-05-08 15:10:00,90.3,50.8,29.99,WSW,248,10.5,10.5,26,0.00,,---,0.00,VWS V13.01,2013-05-08 19:10:00,
2013-05-08 15:15:00,90.3,49.8,29.99,WSW,248,3.6,10.5,25,0.00,,---,0.00,VWS V13.01,2013-05-08 19:15:00,
2013-05-08 15:20:00,90.3,48.7,29.99,SW,225,1.6,10.5,24,0.00,,---,0.00,VWS V13.01,2013-05-08 19:20:00,
2013-05-08 15:25:00,90.3,48.7,29.99,WSW,248,2.5,10.5,24,0.00,,---,0.00,VWS V13.01,2013-05-08 19:25:00,
2013-05-08 15:30:00,90.3,49.8,29.99,West,270,1.3,10.5,25,0.00,,---,0.00,VWS V13.01,2013-05-08 19:30:00,
2013-05-08 15:35:00,90.5,49.9,29.99,WNW,292,1.1,10.5,25,0.00,,---,0.00,VWS V13.01,2013-05-08 19:35:00,
2013-05-08 15:40:00,90.5,49.9,29.98,West,270,3.4,10.5,25,0.00,,---,0.00,VWS V13.01,2013-05-08 19:40:00,
2013-05-08 15:45:00,90.9,50.2,29.98,SSW,202,2.5,10.5,25,0.00,,---,0.00,VWS V13.01,2013-05-08 19:45:00,
2013-05-08 15:50:00,90.9,49.1,29.98,WSW,248,0.0,10.5,24,0.00,,---,0.00,VWS V13.01,2013-05-08 19:50:00,
2013-05-08 15:55:00,91.0,49.3,29.98,WSW,248,0.0,10.5,24,0.00,,---,0.00,VWS V13.01,2013-05-08 19:55:00,
2013-05-08 16:00:00,90.7,49.0,29.98,WSW,248,0.0,1.8,24,0.00,,---,0.00,VWS V13.01,2013-05-08 20:00:00,
2013-05-08 16:05:00,90.5,48.8,29.98,West,270,1.1,6.3,24,0.00,,---,0.00,VWS V13.01,2013-05-08 20:05:00,
2013-05-08 16:10:00,90.3,48.7,29.97,WNW,292,0.0,6.3,24,0.00,,---,0.00,VWS V13.01,2013-05-08 20:10:00,
2013-05-08 16:15:00,90.5,48.8,29.97,SSW,202,0.0,6.3,24,0.00,,---,0.00,VWS V13.01,2013-05-08 20:15:00,
2013-05-08 16:20:00,90.5,48.8,29.97,WNW,292,2.0,6.3,24,0.00,,---,0.00,VWS V13.01,2013-05-08 20:20:00,
2013-05-08 16:25:00,90.5,48.8,29.97,WSW,248,3.4,6.3,24,0.00,,---,0.00,VWS V13.01,2013-05-08 20:25:00,
2013-05-08 16:30:00,90.3,49.8,29.97,WNW,292,2.5,6.3,25,0.00,,---,0.00,VWS V13.01,2013-05-08 20:30:00,
2013-05-08 16:35:00,90.0,49.5,29.97,SW,225,0.0,6.3,25,0.00,,---,0.00,VWS V13.01,2013-05-08 20:35:00,
2013-05-08 16:40:00,90.0,49.5,29.97,West,270,1.3,6.3,25,0.00,,---,0.00,VWS V13.01,2013-05-08 20:40:00,
2013-05-08 16:45:00,90.0,50.5,29.97,WSW,248,2.7,6.3,26,0.00,,---,0.00,VWS V13.01,2013-05-08 20:45:00,
2013-05-08 16:50:00,90.3,51.8,29.97,WSW,248,2.7,6.3,27,0.00,,---,0.00,VWS V13.01,2013-05-08 20:50:00,
2013-05-08 16:55:00,90.3,48.7,29.97,WNW,292,2.0,6.3,24,0.00,,---,0.00,VWS V13.01,2013-05-08 20:55:00,
2013-05-08 17:00:00,90.3,48.7,29.97,SW,225,1.3,1.3,24,0.00,,---,0.00,VWS V13.01,2013-05-08 21:00:00,
2013-05-08 17:05:00,90.3,47.5,29.97,SW,225,2.5,6.3,23,0.00,,---,0.00,VWS V13.01,2013-05-08 21:05:00,
2013-05-08 17:10:00,90.3,48.7,29.97,WSW,248,1.3,7.6,24,0.00,,---,0.00,VWS V13.01,2013-05-08 21:10:00,
2013-05-08 17:15:00,90.3,48.7,29.97,NW,315,0.0,7.6,24,0.00,,---,0.00,VWS V13.01,2013-05-08 21:15:00,
2013-05-08 17:20:00,90.0,48.4,29.97,SW,225,0.0,7.6,24,0.00,,---,0.00,VWS V13.01,2013-05-08 21:20:00,
2013-05-08 17:25:00,90.1,50.7,29.97,SSW,202,0.0,7.6,26,0.00,,---,0.00,VWS V13.01,2013-05-08 21:25:00,
2013-05-08 17:30:00,90.3,50.8,29.97,SW,225,2.7,7.8,26,0.00,,---,0.00,VWS V13.01,2013-05-08 21:30:00,
2013-05-08 17:35:00,90.0,50.5,29.97,WSW,248,0.0,7.8,26,0.00,,---,0.00,VWS V13.01,2013-05-08 21:35:00,
2013-05-08 17:40:00,89.2,49.9,29.96,West,270,0.0,7.8,26,0.00,,---,0.00,VWS V13.01,2013-05-08 21:40:00,
2013-05-08 17:45:00,89.2,50.9,29.97,WSW,248,2.2,7.8,27,0.00,,---,0.00,VWS V13.01,2013-05-08 21:45:00,
2013-05-08 17:50:00,89.2,50.9,29.97,WNW,292,0.0,7.8,27,0.00,,---,0.00,VWS V13.01,2013-05-08 21:50:00,
2013-05-08 17:55:00,89.2,50.9,29.97,West,270,4.7,7.8,27,0.00,,---,0.00,VWS V13.01,2013-05-08 21:55:00,
2013-05-08 18:00:00,88.7,50.5,29.97,WSW,248,0.9,2.7,27,0.00,,---,0.00,VWS V13.01,2013-05-08 22:00:00,
2013-05-08 18:05:00,88.7,51.4,29.97,West,270,0.9,2.7,28,0.00,,---,0.00,VWS V13.01,2013-05-08 22:05:00,
2013-05-08 18:10:00,88.0,50.8,29.97,SW,225,0.0,2.7,28,0.00,,---,0.00,VWS V13.01,2013-05-08 22:10:00,
2013-05-08 18:15:00,88.0,51.8,29.97,West,270,0.0,2.7,29,0.00,,---,0.00,VWS V13.01,2013-05-08 22:15:00,
2013-05-08 18:20:00,88.2,51.9,29.97,WNW,292,0.0,2.7,29,0.00,,---,0.00,VWS V13.01,2013-05-08 22:20:00,
2013-05-08 18:25:00,88.5,53.2,29.97,West,270,0.0,2.7,30,0.00,,---,0.00,VWS V13.01,2013-05-08 22:25:00,
2013-05-08 18:30:00,88.3,52.1,29.97,West,270,0.0,3.6,29,0.00,,---,0.00,VWS V13.01,2013-05-08 22:30:00,
2013-05-08 18:35:00,88.0,51.8,29.97,South,180,1.1,3.6,29,0.00,,---,0.00,VWS V13.01,2013-05-08 22:35:00,
2013-05-08 18:40:00,87.8,51.6,29.96,WSW,248,0.0,4.3,29,0.00,,---,0.00,VWS V13.01,2013-05-08 22:40:00,
2013-05-08 18:45:00,87.6,52.4,29.96,SSW,202,0.0,4.3,30,0.00,,---,0.00,VWS V13.01,2013-05-08 22:45:00,
2013-05-08 18:50:00,87.4,52.2,29.96,WSW,248,0.0,4.5,30,0.00,,---,0.00,VWS V13.01,2013-05-08 22:50:00,
2013-05-08 18:55:00,87.3,52.1,29.96,WSW,248,0.0,4.5,30,0.00,,---,0.00,VWS V13.01,2013-05-08 22:55:00,
2013-05-08 19:00:00,86.9,51.8,29.96,SSW,202,0.0,0.0,30,0.00,,---,0.00,VWS V13.01,2013-05-08 23:00:00,
2013-05-08 19:05:00,86.5,52.3,29.97,SSW,202,0.0,1.3,31,0.00,,---,0.00,VWS V13.01,2013-05-08 23:05:00,
2013-05-08 19:10:00,86.4,53.0,29.96,WSW,248,0.0,2.2,32,0.00,,---,0.00,VWS V13.01,2013-05-08 23:10:00,
2013-05-08 19:15:00,86.2,52.9,29.96,WSW,248,0.0,3.1,32,0.00,,---,0.00,VWS V13.01,2013-05-08 23:15:00,
2013-05-08 19:20:00,86.2,52.9,29.96,West,270,0.0,3.1,32,0.00,,---,0.00,VWS V13.01,2013-05-08 23:20:00,
2013-05-08 19:25:00,85.6,54.1,29.96,SSE,158,0.0,3.4,34,0.00,,---,0.00,VWS V13.01,2013-05-08 23:25:00,
2013-05-08 19:30:00,84.9,54.2,29.96,SE,135,0.0,3.4,35,0.00,,---,0.00,VWS V13.01,2013-05-08 23:30:00,
2013-05-08 19:35:00,84.4,55.3,29.97,SE,135,0.0,4.3,37,0.00,,---,0.00,VWS V13.01,2013-05-08 23:35:00,
2013-05-08 19:40:00,83.7,55.4,29.97,ESE,112,0.0,4.3,38,0.00,,---,0.00,VWS V13.01,2013-05-08 23:40:00,
2013-05-08 19:45:00,83.1,54.9,29.97,SE,135,3.1,4.3,38,0.00,,---,0.00,VWS V13.01,2013-05-08 23:45:00,
2013-05-08 19:50:00,82.6,55.8,29.97,SE,135,0.0,4.3,40,0.00,,---,0.00,VWS V13.01,2013-05-08 23:50:00,
2013-05-08 19:55:00,82.0,56.0,29.97,ESE,112,0.0,4.3,41,0.00,,---,0.00,VWS V13.01,2013-05-08 23:55:00,
2013-05-08 20:00:00,81.5,55.5,29.97,SE,135,0.0,2.7,41,0.00,,---,0.00,VWS V13.01,2013-05-09 00:00:00,
2013-05-08 20:05:00,81.3,56.1,29.98,SE,135,0.0,2.7,42,0.00,,---,0.00,VWS V13.01,2013-05-09 00:05:00,
2013-05-08 20:10:00,81.0,56.4,29.98,SE,135,1.3,4.3,43,0.00,,---,0.00,VWS V13.01,2013-05-09 00:10:00,
2013-05-08 20:15:00,80.8,56.2,29.98,SE,135,0.0,4.7,43,0.00,,---,0.00,VWS V13.01,2013-05-09 00:15:00,
2013-05-08 20:20:00,80.6,56.7,29.98,South,180,1.8,4.7,44,0.00,,---,0.00,VWS V13.01,2013-05-09 00:20:00,
2013-05-08 20:25:00,80.2,56.4,29.98,SSE,158,0.0,4.7,44,0.00,,---,0.00,VWS V13.01,2013-05-09 00:25:00,
2013-05-08 20:30:00,80.1,56.8,29.98,SE,135,0.0,4.7,45,0.00,,---,0.00,VWS V13.01,2013-05-09 00:30:00,
2013-05-08 20:35:00,79.9,56.7,29.99,SSE,158,0.0,4.7,45,0.00,,---,0.00,VWS V13.01,2013-05-09 00:35:00,
2013-05-08 20:40:00,79.7,56.5,29.99,SE,135,0.0,4.7,45,0.00,,---,0.00,VWS V13.01,2013-05-09 00:40:00,
2013-05-08 20:45:00,79.5,56.3,29.99,SE,135,0.0,4.7,45,0.00,,---,0.00,VWS V13.01,2013-05-09 00:45:00,
2013-05-08 20:50:00,79.5,57.0,29.99,SE,135,0.0,4.7,46,0.00,,---,0.00,VWS V13.01,2013-05-09 00:50:00,
2013-05-08 20:55:00,79.2,57.2,29.99,SE,135,0.0,4.7,47,0.00,,---,0.00,VWS V13.01,2013-05-09 00:55:00,
2013-05-08 21:00:00,79.0,57.0,29.99,SE,135,0.0,0.0,47,0.00,,---,0.00,VWS V13.01,2013-05-09 01:00:00,
2013-05-08 21:05:00,79.0,57.0,29.99,SE,135,0.0,0.0,47,0.00,,---,0.00,VWS V13.01,2013-05-09 01:05:00,
2013-05-08 21:10:00,78.6,57.3,30.00,SE,135,0.0,0.0,48,0.00,,---,0.00,VWS V13.01,2013-05-09 01:10:00,
2013-05-08 21:15:00,78.6,57.3,30.00,SE,135,0.0,0.0,48,0.00,,---,0.00,VWS V13.01,2013-05-09 01:15:00,
2013-05-08 21:20:00,78.3,57.5,30.00,SE,135,0.0,0.0,49,0.00,,---,0.00,VWS V13.01,2013-05-09 01:20:00,
2013-05-08 21:25:00,78.3,57.5,30.01,SE,135,0.0,0.0,49,0.00,,---,0.00,VWS V13.01,2013-05-09 01:25:00,
2013-05-08 21:30:00,78.1,58.0,30.01,SE,135,0.0,0.0,50,0.00,,---,0.00,VWS V13.01,2013-05-09 01:30:00,
2013-05-08 21:35:00,77.9,57.8,30.01,SE,135,0.0,0.0,50,0.00,,---,0.00,VWS V13.01,2013-05-09 01:35:00,
2013-05-08 21:40:00,77.7,57.6,30.01,SE,135,0.0,0.0,50,0.00,,---,0.00,VWS V13.01,2013-05-09 01:40:00,
2013-05-08 21:45:00,77.5,58.5,30.01,SE,135,0.0,0.0,52,0.00,,---,0.00,VWS V13.01,2013-05-09 01:45:00,
2013-05-08 21:50:00,77.5,58.5,30.02,SE,135,0.0,0.0,52,0.00,,---,0.00,VWS V13.01,2013-05-09 01:50:00,
2013-05-08 21:55:00,77.4,58.4,30.02,SE,135,0.0,0.0,52,0.00,,---,0.00,VWS V13.01,2013-05-09 01:55:00,
2013-05-08 22:00:00,77.2,58.7,30.02,WSW,248,0.0,0.0,53,0.00,,---,0.00,VWS V13.01,2013-05-09 02:00:00,
2013-05-08 22:05:00,77.2,58.7,30.02,West,270,0.0,1.1,53,0.00,,---,0.00,VWS V13.01,2013-05-09 02:05:00,
2013-05-08 22:10:00,77.2,57.7,30.02,West,270,0.0,1.8,51,0.00,,---,0.00,VWS V13.01,2013-05-09 02:10:00,
2013-05-08 22:15:00,77.2,56.6,30.03,NW,315,0.0,1.8,49,0.00,,---,0.00,VWS V13.01,2013-05-09 02:15:00,
2013-05-08 22:20:00,77.4,55.6,30.02,NW,315,0.0,1.8,47,0.00,,---,0.00,VWS V13.01,2013-05-09 02:20:00,
2013-05-08 22:25:00,77.2,55.4,30.03,NW,315,0.0,1.8,47,0.00,,---,0.00,VWS V13.01,2013-05-09 02:25:00,
2013-05-08 22:30:00,77.2,55.4,30.03,NW,315,0.0,1.8,47,0.00,,---,0.00,VWS V13.01,2013-05-09 02:30:00,
2013-05-08 22:35:00,76.8,55.1,30.03,NW,315,0.0,1.8,47,0.00,,---,0.00,VWS V13.01,2013-05-09 02:35:00,
2013-05-08 22:40:00,76.6,54.9,30.03,NW,315,0.0,1.8,47,0.00,,---,0.00,VWS V13.01,2013-05-09 02:40:00,
2013-05-08 22:45:00,76.5,54.8,30.03,NW,315,0.0,1.8,47,0.00,,---,0.00,VWS V13.01,2013-05-09 02:45:00,
2013-05-08 22:50:00,76.3,54.6,30.04,NW,315,0.0,1.8,47,0.00,,---,0.00,VWS V13.01,2013-05-09 02:50:00,
2013-05-08 22:55:00,76.1,53.8,30.04,NW,315,0.0,1.8,46,0.00,,---,0.00,VWS V13.01,2013-05-09 02:55:00,
2013-05-08 23:00:00,75.7,54.1,30.04,NW,315,0.0,0.0,47,0.00,,---,0.00,VWS V13.01,2013-05-09 03:00:00,
2013-05-08 23:05:00,75.9,53.7,30.04,NW,315,0.0,0.0,46,0.00,,---,0.00,VWS V13.01,2013-05-09 03:05:00,
2013-05-08 23:10:00,75.9,53.1,30.04,NW,315,0.0,0.0,45,0.00,,---,0.00,VWS V13.01,2013-05-09 03:10:00,
2013-05-08 23:15:00,75.7,52.9,30.04,NW,315,0.0,0.0,45,0.00,,---,0.00,VWS V13.01,2013-05-09 03:15:00,
2013-05-08 23:20:00,75.6,52.8,30.04,NW,315,0.0,0.0,45,0.00,,---,0.00,VWS V13.01,2013-05-09 03:20:00,
2013-05-08 23:25:00,75.4,52.6,30.04,NW,315,0.0,0.0,45,0.00,,---,0.00,VWS V13.01,2013-05-09 03:25:00,
2013-05-08 23:30:00,75.2,52.4,30.04,NW,315,0.0,0.0,45,0.00,,---,0.00,VWS V13.01,2013-05-09 03:30:00,
2013-05-08 23:35:00,75.0,52.3,30.04,NW,315,0.0,0.0,45,0.00,,---,0.00,VWS V13.01,2013-05-09 03:35:00,
2013-05-08 23:40:00,74.7,51.9,30.04,NW,315,0.0,0.0,45,0.00,,---,0.00,VWS V13.01,2013-05-09 03:40:00,
2013-05-08 23:45:00,74.5,52.4,30.04,NW,315,0.0,0.0,46,0.00,,---,0.00,VWS V13.01,2013-05-09 03:45:00,
2013-05-08 23:50:00,74.1,52.0,30.04,NW,315,0.0,0.0,46,0.00,,---,0.00,VWS V13.01,2013-05-09 03:50:00,
2013-05-08 23:55:00,74.1,52.6,30.04,NW,315,0.0,0.0,47,0.00,,---,0.00,VWS V13.01,2013-05-09 03:55:00,